SAOCOM 1A

Last updated on Thu Oct 30 2025 00:02:16 GMT+0000 (Coordinated Universal Time)

1 43641U 18076A 25302.51998750 .00000706 00000+0 95211-4 0 9990 2 43641 97.8876 127.5813 0001416 86.0611 274.0764 14.82170924381938
UTC large
Height (km)
Speed (km/s)
/
Latitude / Longitude
Inclination (degrees)
Orbital Period (minutes)
Azimuth
Elevation
Range (km)
Doppler Factor

Next 0 passes for location: London (51.5072 / 0.1276)

Sorry there are no passes over London.